Presure
121 147 133 115 109 144 137 147 161 142 127 131 133 134 144 130 143 145 144 147 153 154 154 153 150 144 147 147 146 149 157 153 149 146 144 157 165 135 146 153 108 159 159
96 99 134 110 127 146 140 144 159 114 159 152 137 129 140 152 137 133 137 141 122 139 148 101 98 101 122 143 105 150 167 144 130 135 158 163 164 166 147 146 103 164 157
125 148 131 129 117 124 136 140 135 149 157 152 168 125 150 142 148 133 160 150 142 145 102 149 158 158 144 162 120 143 148 145 157 157 159 160 164 157 163 162 151 153 157
125 103 121 142 107 115 104 128 132 143 148 161 136 172 132 152 106 86 125 148 167 168 162 130 159 161 142 144 148 146 161 154 156 153 173 170 161 193 154 167 155 158 143
90 131 121 132 130 121 139 124 149 152 138 150 123 121 143 118 140 163 94 89 94 93 134 147 115 159 172 140 154 167 204 178 126 166 182 194 151 149 170 159 163 160 167
98 108 145 124 143 145 145 129 117 154 109 143 133 108 111 148 157 162 162 132 154 185 182 129 97 204 144 163 123 123 125 137 141 219 180 148 150 152 159 158 159 163 183
93 102 91 131 116 131 144 95 140 161 144 147 139 142 160 139 135 135 185 169 128 184 136 132 103 144 184 161 134 109 192 143 131 159 236 130 103 250 200 247 242 197 238
92 95 94 106 87 129 90 101 151 161 117 140 110 138 110 145 155 156 150 145 182 135 185 133 176 127 158 195 216 105 104 216 198 142 208 183 220 156 182 120 123 140 177
85 89 87 104 136 129 143 128 104 136 171 114 168 116 180 155 132 168 131 137 167 156 178 151 139 142 171 206 137 132 128 181 232 248 251 244 174 240 222 215 153 179 155
90 90 77 112 105 109 160 120 99 132 98 105 164 100 90 89 123 143 107 105 81 184 168 186 138 206 196 211 206 214 274 243 244 242 239 229 143 229 224 214 204 163 168
90 88 77 95 95 160 96 97 97 89 89 89 86 88 88 99 86 114 99 149 115 87 89 157 172 84 129 202 204 240 244 245 231 228 183 145 197 207 189 152 153 165 170
96 88 92 78 87 161 96 113 85 86 95 90 92 85 86 88 83 86 84 94 130 169 90 89 105 193 190 201 230 242 236 229 221 165 138 141 205 190 183 180 171 161 170
109 96 88 93 97 146 135 122 135 90 83 91 84 88 84 84 78 78 166 164 178 104 93 118 85 181 206 223 231 236 150 213 137 115 114 205 193 169 163 170 179 179 161
91 93 82 88 105 126 78 79 92 87 89 92 81 86 88 88 78 99 105 125 172 196 178 88 181 185 213 211 224 229 217 163 144 205 203 205 140 196 162 156 188 182 180
119 114 204 201 173 125 196 190 148 89 85 88 86 84 81 87 90 106 81 95 80 103 97 200 169 106 221 197 231 219 215 204 204 184 207 180 201 200 199 197 157 193 181
111 98 99 90 153 211 203 100 102 149 85 91 88 86 82 84 145 123 90 104 102 106 175 136 137 212 194 237 219 218 214 206 205 203 187 196 195 177 180 193 197 196 189
206 113 117 126 210 86 188 90 141 113 132 122 112 76 162 182 178 174 190 91 93 109 185 192 195 212 235 224 214 213 212 219 210 205 209 209 208 206 209 213 189 215 216
189 173 112 123 226 111 196 175 112 110 109 177 109 90 122 102 168 81 88 98 104 108 116 193 202 184 223 205 216 212 206 201 199 195 195 193 193 194 196 201 199 194 195
94 78 88 75 116 219 125 112 95 99 94 98 102 111 120 136 105 139 141 162 98 110 111 208 199 180 207 202 184 192 193 185 186 187 186 184 183 182 183 186 189 184 183
97 96 88 96 111 102 121 86 95 99 107 112 118 117 108 82 115 117 181 148 109 109 110 183 198 152 190 190 182 189 187 189 188 186 188 180 182 181 181 180 192 188 178
186 180 102 101 99 102 95 101 107 118 122 112 104 107 108 158 111 112 99 188 99 111 111 189 183 191 192 190 186 183 185 181 179 184 185 186 183 183 182 184 98 184 196
149 190 128 179 109 135 112 129 110 117 104 97 85 107 96 112 110 97 94 109 111 115 194 195 175 193 173 186 179 171 177 188 180 167 164 163 164 189 190 182 184 182 190
201 159 140 172 116 141 182 199 100 106 83 91 110 106 158 110 103 217 151 100 110 190 189 166 180 191 176 183 174 176 181 182 182 181 186 177 176 180 182 192 203 206 204
240 205 201 189 182 170 168 109 85 164 112 115 105 110 107 143 215 210 204 144 114 194 184 182 191 182 187 181 182 176 184 182 166 163 172 177 180 191 191 187 184 201 182
153 183 206 206 92 188 184 172 123 112 188 109 108 107 109 211 210 213 197 183 194 178 194 183 192 183 180 186 180 182 179 178 173 175 163 152 156 178 174 276 251 245 184
215 235 205 210 156 188 187 175 183 175 176 108 124 108 185 209 203 197 190 187 183 183 188 191 191 182 180 190 174 178 181 177 175 173 175 181 185 209 272 237 233 230 235
Wind_Speed
27 39 33 20 17 32 27 35 42 35 28 31 33 32 37 33 36 36 39 40 43 44 45 45 44 44 45 46 47 49 54 53 52 53 53 54 55 46 55 55 36 60 58
6 8 36 18 27 35 35 37 42 24 46 45 39 31 40 47 36 36 38 39 34 41 45 22 22 23 33 48 27 51 59 52 46 48 57 57 56 58 53 54 35 59 57
37 45 36 34 26 30 33 35 33 39 46 44 51 33 49 41 41 36 51 48 45 46 21 48 53 55 50 57 35 50 51 51 56 55 56 57 59 56 59 57 53 56 55
29 22 27 43 19 24 13 33 33 41 42 48 37 52 38 48 21 14 33 47 57 59 57 39 57 58 48 50 52 52 57 55 54 53 63 60 56 69 54 58 54 56 51
11 38 29 37 38 31 43 31 46 49 40 45 28 33 43 29 43 56 22 20 21 20 42 49 34 52 60 48 56 65 72 69 39 58 69 76 49 49 59 55 57 54 57
16 19 46 31 47 49 48 37 27 53 16 43 38 19 21 47 52 57 57 39 51 60 59 39 31 68 49 60 38 39 41 45 46 68 62 48 49 50 55 52 53 54 64
15 17 7 42 24 41 50 9 43 60 45 46 40 44 56 42 42 39 66 58 39 65 40 43 35 48 65 56 44 35 71 47 42 54 60 40 39 54 51 55 58 61 59
15 13 8 26 16 42 9 19 56 61 27 43 16 39 21 48 48 47 49 47 56 45 66 42 66 41 56 73 74 39 38 62 57 50 51 46 54 47 46 49 49 48 51
16 14 15 21 45 38 51 37 12 41 66 20 64 25 61 55 40 61 39 45 61 57 70 52 49 51 63 79 46 47 46 55 54 51 48 46 46 46 49 50 46 53 50
18 18 17 26 22 24 65 29 11 41 4 14 64 11 8 10 34 49 20 27 22 70 65 80 49 79 76 73 70 71 51 55 50 47 44 44 47 46 48 48 50 51 52
24 24 18 19 15 65 15 19 12 9 8 8 11 10 11 21 15 30 24 57 34 28 28 63 60 35 48 69 67 63 53 46 45 42 46 49 47 47 50 52 52 52 54
26 24 20 18 16 69 19 35 15 15 18 13 16 13 14 17 18 21 22 24 50 70 29 32 40 66 66 66 67 55 50 45 43 48 48 52 46 51 56 57 56 56 57
37 29 24 26 26 60 49 37 47 16 19 18 18 18 17 19 20 22 67 65 73 36 33 43 35 64 73 70 61 52 51 46 49 51 51 45 51 57 59 58 60 62 58
26 25 27 25 36 41 19 21 27 22 21 21 21 22 22 22 22 32 32 51 68 73 66 40 64 65 73 63 57 46 47 53 57 46 46 47 53 55 62 61 60 62 61
44 41 80 81 70 44 78 82 61 26 25 24 22 25 25 27 29 36 28 37 31 43 41 70 64 47 63 58 47 47 45 45 46 52 44 54 48 50 54 55 59 61 65
41 38 33 29 57 82 81 31 31 56 26 29 26 26 27 29 55 44 37 44 44 48 64 54 56 66 62 44 45 44 43 44 45 45 49 51 54 58 60 59 59 59 64
68 49 51 53 79 28 70 31 52 40 46 43 41 26 62 70 70 68 71 42 45 51 67 68 70 60 45 44 43 41 43 44 45 47 48 49 51 52 54 57 65 59 61
66 58 35 49 63 41 70 63 44 42 42 69 40 32 48 41 68 37 42 47 51 53 58 68 62 60 45 48 41 41 39 40 41 44 46 49 51 52 55 56 57 58 61
36 30 31 27 45 63 50 45 34 40 35 38 39 45 48 55 44 54 56 62 47 54 58 57 59 61 45 41 54 48 46 49 48 50 51 53 57 60 60 60 60 63 66
44 44 34 37 43 41 40 32 38 44 48 45 45 45 46 38 53 56 66 60 54 55 59 58 53 63 55 53 57 49 49 50 51 54 57 61 62 64 66 66 70 68 72
78 66 49 47 44 46 38 44 49 52 50 44 42 44 47 59 50 56 49 67 50 59 64 58 61 56 54 54 56 56 55 60 64 63 65 68 70 72 73 75 59 77 83
67 77 57 63 51 49 52 52 48 51 45 43 41 49 47 54 55 50 52 58 61 63 55 57 65 55 68 58 64 71 69 62 64 74 78 78 77 81 82 81 83 84 88
79 61 58 65 46 56 59 54 44 49 38 47 52 50 55 56 54 57 58 56 64 55 59 65 66 57 67 62 70 68 64 69 70 79 81 79 79 84 86 92 97 97 97
71 77 75 73 61 58 57 50 42 48 52 57 52 53 52 52 53 54 55 61 71 57 61 64 63 66 62 65 64 69 65 67 77 80 85 94 97 101 100 99 97 103 94
45 65 73 70 43 61 60 60 50 53 51 55 55 53 58 52 52 52 52 56 58 63 64 67 63 66 68 65 69 71 74 74 76 74 79 87 91 100 101 88 95 96 100
58 67 72 68 52 63 60 62 58 58 61 55 59 56 52 50 51 53 55 58 62 64 65 67 65 69 71 71 77 77 77 80 84 85 83 88 90 99 92 100 102 103 103
Wind_Direction
230 264 252 242 248 269 267 261 268 257 252 262 265 269 274 262 270 271 272 272 272 272 272 273 274 273 272 271 272 275 275 274 274 275 274 273 275 277 274 275 283 274 275
197 220 252 239 256 272 265 269 268 256 268 268 271 265 276 273 267 264 267 271 276 271 276 308 314 306 283 272 294 272 274 274 281 279 277 278 277 275 272 273 282 273 275
245 261 246 254 252 249 263 273 262 274 266 266 264 269 271 271 273 275 272 273 269 271 309 271 275 272 270 274 287 273 271 274 275 276 277 277 277 275 275 273 274 276 275
248 240 255 255 257 249 272 254 273 266 271 270 269 267 270 271 285 329 284 272 274 274 275 285 274 277 273 275 274 276 276 278 276 277 280 277 273 281 277 274 276 276 278
230 241 233 254 247 252 261 251 271 275 266 270 271 272 268 275 275 274 312 323 314 313 278 270 299 274 282 277 277 280 287 279 283 280 282 284 278 279 277 278 277 278 279
238 241 253 249 262 266 263 253 259 276 286 266 265 286 288 274 273 276 275 272 274 286 285 292 314 294 279 279 286 288 290 283 281 288 283 281 281 282 281 280 280 280 278
226 250 236 245 257 259 265 284 262 277 268 266 265 269 277 278 279 284 280 281 287 287 284 289 300 281 285 289 280 295 286 282 281 281 289 289 291 281 281 275 274 276 273
229 240 248 243 256 257 258 272 272 272 266 271 289 278 288 275 279 278 286 284 288 281 292 285 284 282 285 296 304 300 297 298 288 281 285 288 280 288 287 290 287 282 278
225 228 233 254 257 258 266 262 262 266 266 278 271 284 275 276 280 279 284 282 284 276 288 280 284 283 292 303 283 287 284 286 291 293 292 288 281 281 279 277 275 279 278
220 227 234 255 253 257 268 263 255 264 263 273 270 289 325 316 287 279 305 299 315 292 281 293 290 302 301 303 302 303 297 296 294 293 292 288 281 282 280 278 279 277 279
223 223 240 244 248 265 237 253 239 243 254 265 276 291 293 289 294 289 300 290 294 305 304 297 303 315 305 301 302 306 301 298 296 291 286 283 283 280 279 279 278 280 278
227 230 236 252 252 264 241 262 252 250 269 257 272 272 281 294 295 303 306 301 289 286 298 301 300 298 297 300 306 303 299 296 292 285 282 282 281 279 279 280 279 279 279
251 246 231 248 259 259 265 262 260 252 263 259 269 277 279 282 299 301 284 288 290 300 296 297 304 297 303 306 304 302 289 292 288 290 290 284 278 278 280 280 279 279 279
226 240 240 240 266 259 262 265 254 253 258 263 277 274 280 287 297 297 295 291 291 291 290 299 291 296 304 302 301 296 295 289 286 290 287 285 286 278 282 283 278 277 279
247 248 250 252 255 261 253 253 259 255 261 263 268 277 287 288 291 291 297 296 305 300 299 296 298 300 300 297 295 292 292 288 289 288 287 284 284 281 280 279 280 279 280
240 253 252 243 251 252 254 256 261 261 267 266 271 276 288 290 282 292 295 292 295 301 293 298 298 299 297 294 293 291 290 286 287 286 285 283 282 284 283 281 281 280 279
250 250 254 254 254 258 258 259 260 262 272 272 272 283 271 273 274 278 283 291 295 300 289 294 296 297 294 294 291 291 291 295 293 292 294 294 293 292 291 292 282 289 287
255 252 238 252 257 257 256 259 261 265 267 264 276 279 280 286 273 297 295 293 299 302 303 294 294 291 295 295 298 300 301 298 297 296 295 293 292 291 290 291 287 286 286
241 229 242 250 255 260 258 257 270 277 272 276 277 285 285 274 288 282 284 283 296 304 306 289 290 291 296 294 292 295 296 290 291 291 287 284 283 282 282 283 283 277 277
244 251 239 248 254 257 256 261 269 275 276 277 279 285 287 284 289 289 276 286 299 304 303 288 284 290 289 290 291 292 291 294 293 290 291 285 284 285 283 283 292 283 277
251 254 253 256 256 257 258 266 271 267 269 275 280 286 288 280 279 292 290 281 293 303 302 282 283 287 290 291 290 292 293 292 292 296 295 292 289 290 289 290 282 285 292
245 249 253 257 258 258 264 265 268 268 273 275 276 284 284 290 289 288 285 297 301 300 279 282 286 286 289 289 290 292 291 295 290 290 291 291 290 296 294 289 289 286 288
240 243 251 254 257 260 258 262 265 270 272 273 280 281 277 287 289 273 286 290 299 278 279 289 286 285 287 289 291 293 296 298 297 296 296 292 290 290 289 291 292 291 288
236 240 242 248 252 252 257 265 265 270 275 278 280 284 284 279 270 272 275 290 296 276 283 283 284 284 288 289 290 291 291 290 291 294 297 299 299 300 298 293 291 291 288
238 239 240 243 260 251 254 260 267 270 269 277 280 282 286 269 271 272 276 279 278 281 281 282 285 285 287 290 289 290 289 288 286 286 287 296 298 292 292 298 296 294 292
235 235 239 240 253 249 251 257 259 264 271 275 277 280 273 269 272 274 276 279 279 283 283 284 287 287 288 290 288 289 289 289 289 290 289 290 291 294 298 297 294 291 290